MDT,Max TemperatureF,Mean TemperatureF,Min TemperatureF,Max Dew PointF,MeanDew PointF,Min DewpointF,Max Humidity, Mean Humidity, Min Humidity, Max Sea Level PressureIn, Mean Sea Level PressureIn, Min Sea Level PressureIn, Max VisibilityMiles, Mean VisibilityMiles, Min VisibilityMiles, Max Wind SpeedMPH, Mean Wind SpeedMPH, Max Gust SpeedMPH,PrecipitationIn, CloudCover, Events, WindDirDegrees
2013-5-1,53,37,20,10,6,0,57,35,13,30.58,30.44,30.25,10,10,10,15,4,17,0.00,1,,342
2013-5-2,67,44,21,10,5,1,44,26,7,30.67,30.49,30.27,10,10,10,14,2,16,0.00,0,,73
2013-5-3,65,51,37,30,20,9,49,33,17,30.25,30.12,30.05,10,9,1,22,7,28,0.00,5,,4
2013-5-4,57,50,43,31,29,27,58,47,35,30.08,30.04,29.99,10,10,10,18,9,25,0.00,8,,4
2013-5-5,69,51,33,31,28,23,70,45,19,30.03,29.93,29.81,10,10,10,26,5,35,0.00,2,,328
2013-5-6,73,53,32,33,28,19,70,42,14,29.97,29.87,29.77,10,10,6,29,3,35,0.01,1,Rain,224
2013-5-7,75,55,35,42,31,24,70,43,16,29.96,29.85,29.73,10,10,9,22,5,30,0.01,3,Rain-Thunderstorm,89
2013-5-8,76,57,38,39,33,23,85,50,15,30.05,29.97,29.90,10,10,10,21,5,26,T,2,Rain,223
2013-5-9,77,60,43,40,31,22,57,36,15,30.15,30.06,29.99,10,10,10,29,5,41,T,3,Rain-Thunderstorm,24
2013-5-10,78,60,41,37,29,21,67,40,12,30.24,30.14,30.09,10,10,10,13,2,18,0.00,1,,323
2013-5-11,79,60,41,33,28,26,50,33,15,30.29,30.16,30.06,10,10,10,22,4,26,0.00,1,,302
2013-5-12,84,65,46,36,31,27,54,34,14,30.14,30.04,29.93,10,10,10,22,6,26,0.00,0,,286
2013-5-13,85,67,48,37,28,16,52,31,10,30.04,29.89,29.75,10,10,6,38,9,48,0.00,1,,236
2013-5-14,79,65,50,36,24,13,50,30,9,29.93,29.82,29.75,10,10,10,24,9,36,0.00,0,,241
2013-5-15,76,60,44,30,26,20,53,33,13,29.92,29.81,29.71,10,10,10,25,6,32,T,2,Rain,282
2013-5-16,62,56,50,43,36,30,63,48,32,29.75,29.73,29.70,10,10,10,18,6,25,0.03,6,,360
2013-5-17,56,51,46,45,43,41,93,84,74,29.90,29.81,29.75,10,8,1,15,5,20,0.52,8,Rain-Thunderstorm,350
2013-5-18,64,54,44,43,38,35,92,64,36,30.00,29.91,29.83,10,10,10,20,7,25,0.06,4,Rain,3
2013-5-19,56,51,45,36,32,29,65,50,35,30.13,30.05,29.99,10,10,10,16,9,21,T,8,,357
2013-5-20,69,55,40,36,32,26,70,46,21,30.19,30.06,29.95,10,10,10,13,4,15,0.00,5,,312
2013-5-21,71,56,40,39,35,28,76,50,24,29.94,29.75,29.56,10,10,10,28,8,37,T,3,Rain,166
2013-5-22,62,52,42,39,20,-3,76,42,8,29.75,29.62,29.53,10,10,10,28,9,37,0.00,3,,223
2013-5-23,61,49,37,31,20,10,42,29,15,29.89,29.78,29.68,10,10,9,28,7,33,T,3,Rain,331
2013-5-24,65,49,32,31,21,11,75,45,14,29.99,29.89,29.82,10,10,10,21,6,33,0.00,2,,206
2013-5-25,70,55,39,31,24,19,64,40,15,29.88,29.83,29.75,10,10,10,23,5,29,0.00,2,,288
2013-5-26,68,54,40,39,32,25,76,49,22,29.94,29.86,29.73,10,10,9,26,6,41,0.03,4,Rain-Thunderstorm,260
2013-5-27,65,53,40,40,36,31,82,56,30,29.99,29.84,29.72,10,10,10,17,5,23,0.07,6,Rain,330
2013-5-28,59,52,44,41,38,33,89,65,40,29.75,29.70,29.66,10,10,10,20,4,23,T,6,Rain,328
2013-5-29,62,52,42,41,33,26,82,55,28,29.77,29.69,29.60,10,10,6,30,6,37,0.01,6,Rain,226
2013-5-30,62,52,42,36,29,20,70,46,22,29.98,29.86,29.78,10,10,10,22,7,26,T,7,Rain,339
2013-5-31,67,53,39,30,25,16,70,42,14,30.21,30.10,30.01,10,10,10,20,7,24,0.00,1,,355